Wind_Speed
14 13 12 11 10 7 4 3 2 2 3 3 3 3 3 3 2 1 1 2 3 3 3 4 5 7 7 8 10 10 10 11 10 9 9 11 13 13 11 10 11 12 12 13 13 12 10 10 10 9 10 12 11 11 14 18 22 24 23 20 20 21 21
13 12 12 11 11 9 5 4 4 4 2 1 2 3 3 3 3 1 1 2 1 1 1 2 3 4 4 6 7 9 10 11 11 10 8 9 10 10 10 9 9 10 10 12 13 11 10 10 11 11 11 10 10 11 11 11 13 16 19 19 20 22 23
11 11 10 10 10 9 7 7 7 7 5 4 2 0 2 3 3 2 1 1 1 1 1 1 0 1 1 2 4 5 6 7 7 8 9 9 9 9 9 9 9 9 10 11 12 12 10 10 10 11 12 11 11 11 11 9 8 8 9 12 15 20 24
10 9 9 9 8 8 8 8 8 8 7 6 4 3 2 2 2 2 2 2 2 2 1 1 1 1 0 0 0 1 1 1 1 3 6 8 9 9 9 10 10 11 11 12 12 12 11 11 11 12 12 12 12 12 13 12 9 7 7 8 9 12 16
9 7 7 7 7 7 7 8 8 8 8 7 6 6 5 4 3 2 2 2 2 2 2 2 1 1 0 0 1 1 2 2 2 2 2 3 4 5 5 6 7 8 9 9 9 10 11 11 12 13 13 13 14 14 14 13 10 8 9 8 5 4 6
8 6 5 5 5 5 6 7 7 8 8 8 7 7 7 7 7 6 5 4 3 3 2 2 2 1 1 0 0 1 1 1 1 1 1 1 2 2 2 2 3 3 5 5 6 6 7 7 8 10 10 11 12 13 14 14 12 11 12 12 10 7 5
7 5 3 4 4 4 4 6 7 8 9 9 9 9 9 10 10 9 8 7 6 5 4 4 3 2 2 1 1 0 0 0 1 1 1 1 1 1 2 2 3 3 3 4 5 5 5 5 5 5 5 5 5 7 8 9 8 9 14 15 14 13 10
7 6 2 1 2 2 3 5 6 6 8 9 10 10 11 11 12 12 11 10 9 8 7 6 6 5 4 4 3 2 2 1 1 0 0 1 1 1 2 3 4 4 5 6 6 6 6 6 6 6 6 5 4 3 4 4 3 8 14 15 13 13 12
8 7 5 2 1 0 1 2 3 4 5 7 8 9 10 11 11 12 12 12 12 11 10 10 9 8 7 6 6 5 4 4 3 2 2 2 2 1 1 1 2 3 5 6 6 7 7 7 7 7 8 7 7 5 5 5 3 7 13 14 12 12 11
10 9 7 5 4 3 2 1 0 1 2 3 4 5 6 7 8 9 10 10 11 11 11 11 11 10 10 9 8 7 7 6 6 5 4 4 3 3 3 2 1 0 1 2 3 4 4 5 5 6 7 7 7 7 7 8 7 9 13 14 14 13 13
12 11 10 9 8 6 5 5 4 3 2 1 1 1 2 3 3 4 5 6 7 7 8 8 8 8 9 9 8 8 8 7 7 7 6 6 5 4 4 3 3 2 2 2 2 3 3 2 2 3 3 4 4 5 6 7 9 10 12 14 15 16 16
13 14 14 12 11 10 9 9 8 7 5 4 4 4 3 3 2 2 1 2 2 2 3 3 4 4 5 5 6 6 6 6 6 6 6 6 6 6 5 4 4 3 3 3 3 3 4 4 3 3 2 3 3 3 4 5 7 8 9 11 13 15 16
16 17 17 16 15 14 13 13 12 11 9 8 7 7 7 7 6 6 5 5 4 4 3 2 1 1 2 3 4 4 4 5 6 6 6 7 7 7 7 7 6 6 5 5 5 5 5 5 5 5 5 4 4 4 4 5 6 7 8 9 10 12 13
19 19 20 20 18 17 16 16 16 15 15 13 12 11 10 9 10 10 10 10 9 8 8 7 6 5 5 5 5 5 6 6 6 7 8 8 9 9 9 9 10 10 9 9 9 8 8 8 8 8 8 7 7 7 7 7 8 9 10 11 11 12 14
23 22 23 23 22 20 19 19 18 19 19 18 17 15 14 13 13 12 13 13 13 12 12 11 10 10 9 9 8 8 8 8 7 8 8 9 9 10 10 10 10 11 11 11 11 11 12 12 12 11 11 10 10 10 10 11 11 11 13 14 14 15 16
26 26 24 24 23 22 21 21 20 20 21 21 20 20 19 18 17 16 15 14 14 14 14 14 14 14 13 13 12 11 11 11 11 10 10 10 10 11 12 12 11 11 12 12 12 12 13 13 14 14 15 14 14 14 13 13 14 14 14 16 17 17 18
26 25 23 22 22 22 21 21 21 21 22 22 22 22 24 23 22 21 18 16 16 16 16 17 16 16 16 16 16 14 12 13 13 11 11 11 11 12 13 14 13 13 14 14 14 14 14 14 14 14 15 16 16 17 17 18 17 17 17 17 18 19 19
24 25 25 25 25 24 23 24 24 24 25 24 23 23 25 26 26 24 22 20 20 21 21 20 18 17 17 17 17 16 14 14 13 12 12 12 11 12 14 15 15 15 15 16 16 16 16 16 16 16 15 16 17 17 19 20 20 21 21 20 19 20 20
23 26 28 28 26 26 28 29 29 30 30 27 23 22 23 26 27 25 23 22 24 26 27 25 22 20 19 17 16 16 15 13 12 11 11 12 12 13 15 16 17 17 17 18 18 18 18 18 18 18 18 18 19 20 21 21 22 23 24 24 24 23 22
19 23 27 28 27 27 28 29 29 30 29 26 22 22 25 26 26 25 23 24 27 29 29 28 24 22 22 22 21 18 16 13 12 13 13 13 14 15 17 19 21 21 21 21 21 21 21 21 21 21 21 22 23 23 24 25 25 25 25 26 26 26 26
13 17 20 22 22 23 22 22 23 23 23 21 21 23 26 26 27 27 27 27 28 28 29 27 22 18 20 23 25 24 21 19 18 19 18 17 17 18 19 22 24 25 25 25 25 25 24 23 23 24 24 25 25 26 26 27 28 28 29 28 28 29 29
9 11 13 15 17 18 19 19 20 19 18 19 19 20 21 21 21 22 23 24 22 22 24 23 18 17 18 21 24 25 26 25 25 24 23 22 21 20 21 23 25 25 26 26 26 27 27 26 25 25 26 27 27 28 28 29 30 31 31 31 31 32 32
9 10 12 13 15 16 17 17 17 17 17 17 18 18 18 18 16 15 17 19 19 20 21 20 19 20 21 21 22 23 25 27 28 29 28 27 26 25 25 26 28 27 26 26 26 27 27 27 26 27 27 28 29 30 31 31 33 34 34 35 35 35 35
13 14 14 15 15 16 16 17 17 17 18 18 19 19 19 19 18 17 18 20 21 22 22 22 23 23 22 22 23 24 25 26 29 31 31 29 28 28 29 31 31 30 28 28 29 29 28 28 28 28 29 30 30 31 32 33 34 35 36 37 37 37 37
17 18 18 18 19 19 19 20 20 21 22 22 23 23 23 22 22 22 22 23 24 25 25 26 26 26 25 24 24 25 26 27 29 31 31 31 30 31 31 33 33 32 32 32 31 31 30 29 29 30 30 30 30 31 32 33 34 35 36 37 37 36 37
20 20 21 20 20 20 20 20 21 22 23 24 24 24 24 25 24 25 26 27 28 29 29 28 27 26 25 25 25 26 27 28 29 30 31 32 31 31 32 33 33 34 35 34 33 32 31 30 30 31 30 30 30 31 32 32 33 35 36 37 37 36 36
21 21 21 20 20 20 20 20 21 22 23 24 25 25 25 25 26 26 27 28 29 29 28 27 26 24 24 25 26 26 26 27 29 30 31 31 30 31 32 32 33 35 36 34 33 33 32 32 32 31 31 30 31 32 32 32 34 36 37 38 39 37 36
20 19 19 19 19 20 20 21 21 22 23 24 25 25 26 26 26 26 27 28 28 26 24 24 24 24 24 25 26 25 25 25 27 29 30 30 30 31 33 34 35 36 36 35 35 34 34 35 35 33 33 32 32 33 33 33 35 37 38 38 39 38 36
19 18 17 17 18 19 20 21 22 23 24 25 25 25 26 26 26 26 27 27 28 26 24 24 24 25 26 26 26 26 26 25 26 27 30 31 31 33 35 37 38 38 37 36 36 35 35 36 37 36 35 35 35 35 35 35 36 37 38 38 38 37 37
20 19 18 17 17 18 20 21 22 23 24 24 25 25 26 26 26 27 27 27 27 25 25 25 26 27 28 28 28 28 27 26 25 27 31 33 34 36 37 38 38 38 37 36 36 36 37 37 37 36 36 36 36 36 36 36 37 38 38 37 36 36 36
22 22 21 20 19 19 20 21 22 23 23 24 24 24 25 26 26 26 25 25 24 23 23 23 24 25 26 27 27 27 26 26 26 29 32 35 36 37 37 37 37 36 36 36 37 37 37 36 36 36 36 36 37 37 38 38 38 38 38 37 36 36 36
24 24 23 22 21 20 21 22 23 24 25 25 25 25 26 26 27 26 24 23 23 23 23 23 24 24 25 26 26 26 26 26 28 31 33 34 36 36 36 36 36 36 36 36 36 36 35 35 36 37 37 37 37 37 38 38 39 39 39 38 37 37 37
26 26 25 24 23 22 22 24 25 26 27 28 28 29 30 30 30 29 28 26 26 26 26 26 26 26 26 27 27 27 27 28 29 32 33 33 34 35 36 36 36 36 36 35 34 33 33 34 35 36 36 36 37 37 37 38 40 40 40 39 39 39 39
28 28 28 28 28 27 26 26 26 28 29 30 31 32 33 33 33 33 32 31 31 31 30 30 29 28 28 28 29 29 29 30 30 31 32 33 34 35 36 36 36 36 34 32 31 32 33 34 35 35 35 36 37 38 39 39 40 41 41 41 41 41 41
30 31 31 31 30 29 28 28 28 28 30 31 33 34 34 35 34 34 34 34 34 34 34 33 33 32 30 30 30 31 31 31 31 31 31 32 33 34 35 36 36 34 31 30 31 32 34 35 36 36 37 37 38 39 40 41 42 42 42 43 43 43 43
31 31 31 30 29 29 29 29 29 28 29 31 32 33 34 35 35 34 34 34 34 34 35 35 35 35 33 32 31 31 31 31 31 30 30 30 31 33 33 33 31 29 29 30 32 34 35 36 37 38 38 39 40 41 41 42 42 43 44 44 45 44 44
30 29 28 27 28 29 30 30 30 31 32 31 30 31 33 34 34 34 34 34 34 34 35 35 36 36 35 34 32 32 32 31 30 29 28 28 29 29 29 28 27 27 29 31 32 33 35 36 37 38 39 40 41 41 42 42 43 44 45 45 45 45 45
Wind_Direction
355 354 353 359 359 353 349 344 336 304 275 270 269 269 272 275 272 213 172 180 192 208 223 222 222 225 225 230 235 234 232 230 225 223 223 224 226 228 231 228 226 227 222 216 218 224 228 222 217 218 223 230 238 249 257 258 256 250 243 242 246 249 250
351 356 356 1 5 9 19 34 38 36 26 323 258 250 249 249 250 225 136 105 136 194 207 192 203 216 215 217 227 233 236 237 233 227 222 221 224 226 228 224 220 221 220 219 222 227 233 229 226 227 226 227 235 247 253 257 262 257 248 246 248 247 247
345 356 0 5 11 19 36 54 52 42 38 39 46 132 203 218 230 219 169 120 108 104 72 79 126 210 212 205 214 228 240 246 242 231 225 225 226 226 228 229 230 234 234 234 234 235 238 236 233 237 239 238 243 255 263 270 283 287 276 273 269 255 246
336 351 2 8 15 23 38 50 46 36 32 35 44 59 87 128 176 186 180 168 154 139 119 103 99 91 58 107 203 229 252 259 216 207 220 230 236 239 242 243 244 248 245 240 237 236 235 233 233 237 243 248 255 264 274 283 295 298 289 289 295 284 259
325 345 2 10 17 29 41 47 46 41 38 39 47 56 67 79 94 113 122 138 143 144 145 144 145 145 126 64 24 16 32 45 70 111 162 202 224 234 242 246 249 253 253 250 248 248 247 245 244 244 246 250 254 259 265 270 273 271 269 261 260 304 286
311 332 359 9 16 34 49 53 55 54 54 56 59 62 69 74 78 84 91 100 109 119 128 136 146 153 167 182 24 348 353 8 22 50 102 150 180 190 201 227 244 254 264 271 271 269 266 259 254 251 251 250 249 253 258 262 262 257 254 246 229 215 227
292 304 344 12 18 39 57 64 67 68 69 70 70 70 72 76 78 80 82 86 91 98 105 110 118 122 126 134 133 132 321 318 306 301 293 265 234 211 213 221 231 239 254 267 271 275 278 277 273 268 268 263 252 252 255 259 256 240 241 240 234 235 240
272 281 293 19 14 26 57 67 74 76 78 80 78 75 73 75 78 80 82 83 83 85 89 91 92 91 92 89 87 86 80 82 79 24 277 278 252 225 236 237 241 247 253 259 263 269 273 274 275 277 280 280 277 267 259 266 236 216 237 246 240 244 252
254 264 260 253 290 284 42 59 71 77 84 87 85 83 79 77 77 79 82 83 83 83 82 83 84 84 84 85 85 82 76 74 71 65 64 56 68 91 141 229 247 256 261 265 269 271 272 271 270 270 271 272 272 268 257 263 234 203 229 248 250 252 255
243 248 250 246 242 237 246 254 225 48 69 83 87 93 91 84 81 79 80 80 81 82 82 81 81 80 81 82 82 83 81 77 75 70 66 59 57 60 67 74 66 312 275 280 281 280 280 277 274 269 268 266 263 258 247 244 240 215 217 233 246 256 264
237 239 241 239 240 244 245 244 243 256 278 322 338 59 101 101 98 91 87 85 81 79 77 77 76 75 76 76 74 75 76 76 76 74 71 68 64 58 56 57 51 40 25 360 339 330 324 312 299 284 277 270 255 249 240 236 240 231 222 228 238 248 260
233 238 238 234 237 243 246 250 253 252 254 269 283 284 273 257 236 207 173 139 116 96 82 67 59 55 54 56 57 56 54 52 52 53 54 52 51 49 47 46 40 33 22 10 360 345 334 328 321 309 291 275 258 239 226 224 234 237 232 233 239 244 250
230 235 238 235 234 238 243 249 252 254 255 252 258 266 266 264 262 257 250 240 235 231 223 226 252 302 340 348 355 3 7 9 10 12 16 17 17 17 16 15 12 10 6 358 352 342 328 321 315 308 297 282 271 258 242 232 234 240 242 241 245 249 252
228 232 236 237 235 235 239 245 251 257 258 255 254 255 254 255 261 266 267 263 258 257 253 248 248 250 256 272 288 300 309 321 332 339 345 350 353 355 357 357 353 350 350 347 342 336 329 323 316 309 300 288 277 267 259 252 245 246 252 253 251 253 257
226 228 232 236 237 236 237 241 248 254 258 258 258 257 257 257 256 258 263 266 267 268 267 264 263 262 260 261 266 273 282 291 299 309 317 324 330 333 337 342 342 340 339 338 335 332 329 325 320 314 306 296 287 277 268 260 254 250 252 256 257 256 258
225 228 231 236 241 243 244 244 248 254 260 264 267 268 268 263 258 254 255 261 266 267 268 268 267 267 267 267 268 269 274 282 289 296 300 306 313 316 319 323 326 326 324 324 325 324 323 321 318 315 312 308 302 295 288 280 273 265 258 257 259 258 258
231 236 238 244 250 252 253 254 255 259 264 268 274 279 277 270 265 263 262 264 267 268 270 270 266 264 264 266 267 265 266 272 279 286 291 295 304 309 309 311 313 313 311 310 310 309 308 307 306 305 305 304 302 300 297 293 289 283 275 269 266 264 262
241 248 252 259 264 263 263 266 266 264 263 264 269 276 277 274 273 273 273 275 277 278 278 276 273 268 262 260 262 262 261 264 269 276 279 284 295 303 304 303 301 301 301 301 301 300 299 298 297 297 296 296 297 297 297 298 297 294 291 287 282 279 275
245 250 254 261 266 265 268 272 275 273 267 264 267 273 274 273 273 273 273 277 282 284 281 280 281 281 274 266 262 262 262 259 260 265 271 281 292 299 301 299 296 295 296 296 295 295 295 295 295 295 295 296 295 294 294 295 296 296 295 294 292 290 287
248 251 253 258 261 263 267 272 277 277 271 268 273 279 278 275 273 270 268 274 283 284 280 279 281 283 283 277 269 266 265 263 264 267 271 279 287 292 295 294 292 291 292 292 292 290 290 291 293 294 296 298 297 295 293 292 291 291 291 291 291 290 289
251 253 254 259 263 268 272 274 277 279 275 273 275 277 277 276 276 274 270 274 283 282 276 274 274 277 283 278 270 267 267 271 280 282 279 278 282 289 292 290 287 286 287 288 289 288 287 287 290 292 295 297 297 296 295 293 292 291 290 289 288 288 287
269 266 266 269 271 274 276 277 278 280 279 277 276 276 277 277 278 277 270 270 280 280 272 267 266 270 278 277 272 269 268 275 287 291 287 285 287 292 294 290 286 284 284 285 286 286 285 285 288 290 293 294 294 294 293 293 293 292 290 289 288 287 287
274 273 272 271 272 274 275 275 277 278 277 277 277 277 276 275 274 273 267 267 275 277 272 269 270 272 273 270 270 271 271 278 289 293 292 290 290 293 295 292 289 287 287 286 285 284 283 284 286 289 291 292 292 291 291 292 292 291 290 289 289 289 289
267 267 266 264 265 266 268 270 272 274 276 276 275 275 274 272 269 266 266 268 270 272 272 271 269 269 268 265 265 268 272 277 283 287 289 290 289 290 290 289 289 289 288 286 285 285 284 284 286 290 293 293 292 291 292 292 291 291 291 290 291 291 291
262 262 262 262 264 266 269 271 271 271 272 272 271 272 272 271 269 267 267 267 268 268 267 266 266 267 268 266 264 266 270 273 276 280 282 283 284 285 285 285 287 288 287 285 285 285 285 287 291 293 294 294 293 292 292 291 291 292 292 291 291 291 291
264 263 264 264 267 270 273 274 273 273 272 271 270 269 268 268 268 267 267 266 265 265 265 268 271 271 269 268 267 268 270 272 273 274 274 276 279 281 282 283 284 286 285 284 283 284 286 289 292 293 292 292 293 292 292 292 293 294 294 294 293 292 290
267 267 268 268 268 269 270 271 272 272 271 271 271 269 268 268 266 266 266 266 266 266 267 270 273 273 273 273 273 273 273 272 271 271 270 272 274 277 280 280 280 281 282 281 281 282 284 287 289 289 289 289 291 292 293 295 296 297 297 297 296 295 293
268 268 268 268 268 268 268 269 269 270 270 270 270 270 270 269 268 267 266 267 269 270 270 271 273 274 275 275 274 274 273 272 272 273 273 272 272 273 276 278 280 281 281 281 281 282 284 286 288 288 288 288 290 292 293 295 297 297 298 298 297 297 295
263 264 266 268 270 270 269 269 269 270 270 271 271 271 271 271 271 270 268 267 270 273 274 274 273 273 273 273 272 272 272 271 271 274 276 275 272 272 274 277 279 279 279 281 282 283 285 286 287 288 289 289 290 291 292 294 295 296 296 296 295 295 293
263 264 265 269 272 272 272 272 271 270 270 271 272 272 272 272 272 271 271 271 272 275 275 274 272 271 272 273 273 272 271 269 268 269 270 270 269 270 272 274 275 276 278 278 279 280 281 283 285 286 287 287 288 288 289 290 291 293 293 292 292 291 290
265 266 268 270 272 273 272 270 269 269 268 267 268 268 269 270 269 269 270 272 274 276 277 275 274 273 272 273 274 273 271 268 264 263 263 264 267 271 273 274 275 276 276 275 275 276 278 280 282 283 284 285 286 287 287 286 287 290 290 289 288 288 287
267 268 269 272 274 276 274 270 266 265 264 264 264 265 266 267 267 268 269 271 273 277 280 281 281 281 279 277 276 275 273 270 266 264 264 266 269 273 276 277 276 276 276 276 277 279 281 282 282 282 283 285 285 287 287 286 286 288 288 286 285 285 285
268 270 271 273 275 277 276 272 267 263 263 264 265 266 267 268 270 272 273 274 276 278 283 286 287 287 286 283 280 277 276 274 271 270 271 272 273 275 276 276 276 277 278 279 282 284 286 286 286 286 286 286 286 287 287 286 286 287 286 285 284 285 285
270 272 274 276 278 279 279 276 271 267 264 264 264 265 266 269 272 275 276 277 278 280 283 286 287 288 288 286 283 281 280 279 277 275 274 274 274 275 276 276 276 277 278 282 287 289 289 288 289 289 288 287 287 287 287 287 287 288 287 287 287 287 287
270 272 273 276 280 282 283 281 277 273 269 266 265 265 267 269 272 274 277 278 279 279 280 282 284 285 285 284 282 280 279 279 278 277 275 274 274 274 275 276 276 278 282 287 289 289 288 289 290 290 290 290 290 290 290 290 290 290 289 289 289 288 287
269 271 272 276 280 282 283 281 279 276 272 268 267 268 269 271 273 274 276 278 278 278 278 278 279 280 281 280 278 276 276 277 278 278 276 274 273 274 276 278 279 282 285 287 286 286 288 290 291 292 293 293 292 291 290 290 290 290 289 289 288 288 287
268 270 272 276 278 279 280 280 278 275 273 272 274 274 274 275 276 277 277 277 277 276 275 275 276 277 278 276 273 274 276 278 279 279 277 275 275 277 280 281 281 282 284 284 285 287 289 291 293 294 294 293 292 291 291 290 290 290 290 290 289 289 289
Height
3128 3127 3126 3126 3126 3126 3126 3126 3126 3126 3126 3127 3127 3127 3127 3127 3128 3128 3128 3129 3129 3129 3129 3130 3131 3131 3132 3132 3132 3133 3133 3134 3134 3134 3134 3135 3135 3136 3137 3138 3138 3139 3139 3140 3141 3142 3143 3143 3143 3144 3144 3144 3145 3145 3145 3146 3146 3147 3147 3148 3149 3149 3150
3127 3126 3125 3125 3125 3125 3125 3125 3125 3125 3125 3126 3126 3126 3126 3126 3127 3127 3128 3128 3128 3128 3129 3129 3130 3130 3131 3131 3132 3132 3132 3132 3133 3134 3134 3134 3135 3136 3136 3137 3137 3138 3138 3139 3140 3141 3142 3142 3142 3142 3142 3143 3143 3143 3143 3143 3143 3144 3145 3146 3146 3147 3147
3127 3126 3125 3125 3125 3125 3125 3124 3124 3125 3125 3125 3125 3126 3126 3126 3126 3127 3127 3128 3128 3128 3129 3129 3129 3129 3130 3130 3131 3131 3131 3131 3132 3132 3133 3133 3134 3135 3135 3136 3136 3137 3138 3138 3139 3140 3141 3141 3141 3141 3141 3141 3141 3141 3141 3142 3143 3143 3144 3144 3144 3144 3144
3126 3125 3124 3124 3124 3125 3125 3124 3124 3124 3124 3125 3125 3125 3125 3126 3126 3126 3127 3128 3128 3128 3129 3129 3129 3129 3129 3130 3130 3130 3130 3130 3131 3131 3132 3132 3133 3134 3134 3135 3136 3136 3137 3137 3138 3138 3139 3139 3140 3140 3140 3140 3140 3141 3141 3141 3142 3143 3143 3142 3142 3142 3142
3125 3125 3124 3124 3124 3125 3125 3125 3124 3125 3125 3125 3125 3125 3125 3126 3126 3126 3127 3127 3128 3128 3128 3129 3129 3129 3129 3129 3130 3130 3130 3130 3131 3131 3132 3132 3132 3133 3134 3134 3135 3135 3135 3136 3136 3137 3137 3138 3138 3138 3138 3139 3139 3139 3139 3140 3141 3141 3140 3139 3139 3140 3140
3125 3125 3124 3124 3125 3125 3125 3125 3125 3125 3125 3126 3126 3126 3126 3126 3126 3126 3127 3127 3128 3128 3128 3129 3129 3129 3129 3130 3130 3130 3130 3130 3131 3131 3131 3132 3132 3133 3133 3133 3134 3134 3134 3135 3135 3136 3136 3136 3137 3137 3137 3137 3137 3137 3138 3138 3139 3139 3138 3136 3136 3136 3137
3125 3125 3125 3124 3125 3125 3125 3125 3126 3126 3126 3126 3127 3127 3127 3127 3127 3127 3128 3128 3128 3128 3128 3129 3129 3129 3130 3130 3130 3130 3130 3130 3131 3131 3131 3131 3132 3132 3133 3133 3133 3133 3134 3134 3134 3134 3135 3135 3135 3135 3135 3136 3136 3136 3136 3136 3137 3137 3135 3134 3134 3135 3136
3125 3125 3125 3125 3125 3126 3126 3126 3127 3127 3127 3127 3128 3128 3128 3128 3128 3129 3129 3129 3129 3129 3129 3129 3130 3130 3130 3130 3130 3130 3130 3131 3131 3131 3131 3131 3131 3132 3132 3132 3132 3133 3133 3133 3133 3133 3133 3133 3134 3134 3134 3134 3135 3135 3135 3135 3136 3135 3133 3132 3134 3135 3135
3125 3125 3125 3125 3126 3126 3127 3127 3128 3128 3128 3128 3128 3129 3129 3129 3130 3130 3130 3130 3130 3130 3130 3130 3131 3131 3131 3131 3131 3131 3131 3131 3131 3131 3131 3131 3131 3131 3131 3131 3132 3132 3132 3132 3132 3132 3132 3132 3132 3132 3133 3133 3134 3134 3134 3134 3135 3135 3132 3131 3132 3133 3134
3124 3124 3124 3125 3125 3126 3127 3128 3128 3129 3129 3129 3129 3130 3130 3130 3131 3131 3131 3131 3131 3132 3132 3132 3132 3132 3132 3132 3132 3132 3132 3132 3132 3132 3131 3131 3131 3131 3131 3131 3131 3131 3131 3131 3131 3131 3131 3131 3131 3131 3131 3132 3132 3133 3133 3133 3134 3134 3133 3132 3131 3132 3132
3122 3123 3123 3124 3125 3126 3126 3127 3128 3129 3129 3130 3130 3130 3131 3131 3132 3132 3132 3132 3132 3133 3133 3133 3133 3133 3133 3133 3133 3133 3133 3133 3133 3133 3132 3132 3132 3132 3131 3131 3131 3131 3131 3130 3130 3130 3130 3130 3130 3130 3130 3131 3131 3132 3132 3132 3132 3133 3133 3132 3132 3131 3131
3120 3120 3121 3122 3123 3124 3125 3126 3127 3128 3129 3130 3130 3130 3131 3132 3132 3132 3133 3133 3133 3133 3133 3133 3133 3133 3133 3133 3133 3133 3133 3133 3133 3133 3133 3133 3133 3133 3132 3132 3131 3131 3131 3130 3130 3129 3129 3129 3129 3129 3130 3130 3130 3131 3131 3131 3131 3131 3131 3132 3131 3131 3131
3118 3118 3119 3120 3122 3123 3124 3124 3125 3126 3127 3128 3129 3129 3130 3131 3132 3132 3133 3133 3133 3133 3133 3133 3133 3133 3133 3133 3133 3133 3133 3133 3133 3133 3133 3133 3133 3133 3133 3132 3132 3131 3131 3130 3130 3130 3129 3129 3129 3129 3129 3129 3129 3130 3130 3130 3130 3130 3130 3130 3130 3130 3130
3116 3116 3117 3117 3119 3121 3122 3122 3123 3124 3125 3126 3127 3128 3128 3129 3130 3131 3131 3132 3132 3132 3132 3132 3132 3132 3132 3133 3133 3133 3133 3133 3133 3133 3132 3132 3132 3132 3132 3132 3131 3131 3131 3130 3130 3130 3129 3129 3129 3128 3128 3128 3128 3128 3129 3129 3129 3129 3128 3128 3129 3128 3128
3113 3113 3114 3115 3116 3118 3119 3120 3121 3122 3122 3123 3125 3126 3127 3127 3128 3128 3129 3130 3131 3131 3132 3132 3132 3132 3132 3132 3132 3132 3132 3132 3132 3132 3132 3132 3131 3131 3131 3131 3131 3130 3130 3130 3129 3129 3128 3128 3128 3127 3127 3127 3127 3127 3127 3127 3127 3127 3127 3127 3127 3127 3126
3110 3111 3112 3113 3115 3116 3117 3118 3119 3120 3120 3121 3123 3124 3125 3126 3125 3125 3126 3127 3128 3129 3130 3130 3130 3130 3130 3130 3130 3131 3131 3130 3130 3131 3131 3131 3130 3130 3129 3129 3130 3129 3129 3128 3128 3127 3127 3126 3126 3125 3125 3125 3125 3125 3125 3125 3125 3125 3125 3125 3124 3124 3124
3109 3111 3112 3114 3115 3116 3116 3117 3118 3118 3119 3120 3121 3121 3122 3123 3124 3124 3124 3124 3125 3125 3126 3126 3127 3128 3128 3128 3128 3129 3129 3129 3129 3129 3129 3129 3129 3129 3128 3128 3128 3127 3127 3127 3126 3126 3126 3125 3125 3124 3124 3123 3123 3123 3122 3122 3122 3122 3123 3123 3122 3121 3121
3110 3111 3112 3114 3114 3115 3115 3115 3116 3117 3117 3118 3118 3119 3119 3120 3121 3123 3123 3123 3122 3122 3122 3122 3124 3125 3126 3126 3126 3126 3127 3127 3127 3127 3127 3126 3127 3127 3127 3127 3126 3126 3125 3125 3124 3124 3123 3123 3122 3122 3122 3121 3121 3120 3120 3119 3119 3118 3119 3119 3119 3119 3118
3107 3108 3110 3110 3111 3112 3112 3113 3113 3114 3114 3115 3115 3116 3118 3118 3119 3120 3121 3120 3120 3119 3119 3120 3121 3123 3124 3124 3124 3124 3124 3125 3124 3124 3124 3124 3124 3124 3124 3124 3124 3124 3123 3122 3122 3121 3121 3120 3120 3119 3119 3118 3118 3118 3117 3116 3116 3115 3115 3115 3115 3115 3115
3103 3105 3106 3107 3108 3108 3109 3110 3110 3110 3111 3111 3112 3114 3115 3116 3116 3117 3118 3117 3116 3117 3117 3118 3120 3120 3120 3121 3121 3121 3121 3122 3122 3122 3122 3122 3122 3121 3121 3121 3121 3120 3120 3119 3119 3118 3118 3118 3117 3116 3116 3116 3115 3115 3114 3114 3113 3112 3112 3112 3111 3111 3111
3100 3102 3103 3104 3104 3105 3106 3106 3106 3106 3107 3108 3109 3111 3112 3113 3113 3113 3114 3114 3113 3113 3113 3115 3117 3118 3118 3117 3117 3117 3117 3118 3118 3119 3118 3118 3119 3119 3118 3117 3116 3116 3116 3116 3116 3115 3115 3114 3114 3114 3113 3113 3112 3111 3111 3110 3110 3109 3109 3108 3108 3107 3107
3099 3099 3100 3100 3101 3101 3102 3103 3103 3103 3103 3105 3106 3108 3108 3109 3109 3109 3109 3110 3110 3109 3110 3111 3113 3115 3115 3115 3114 3113 3113 3113 3113 3114 3114 3114 3114 3115 3114 3113 3113 3112 3112 3112 3112 3111 3111 3111 3110 3110 3110 3109 3109 3108 3107 3106 3106 3105 3104 3104 3104 3103 3103
3097 3097 3097 3098 3098 3098 3099 3099 3100 3100 3101 3102 3103 3104 3105 3105 3105 3106 3106 3106 3106 3106 3107 3108 3110 3111 3112 3111 3110 3109 3109 3109 3108 3108 3109 3109 3110 3110 3110 3109 3109 3108 3108 3108 3107 3107 3107 3106 3106 3106 3106 3105 3105 3104 3103 3102 3101 3100 3100 3099 3099 3099 3098
3095 3095 3095 3096 3096 3096 3096 3097 3098 3098 3099 3100 3100 3101 3101 3102 3102 3102 3103 3103 3103 3103 3104 3105 3106 3107 3108 3108 3107 3106 3105 3105 3105 3104 3104 3105 3105 3106 3106 3105 3104 3105 3105 3104 3103 3103 3103 3102 3102 3102 3102 3101 3100 3099 3099 3098 3097 3096 3095 3095 3095 3094 3093
3093 3093 3093 3094 3094 3094 3094 3094 3095 3095 3096 3096 3097 3097 3098 3098 3098 3099 3099 3100 3100 3100 3101 3102 3103 3103 3103 3103 3103 3102 3102 3102 3102 3101 3101 3101 3101 3102 3101 3101 3101 3101 3100 3100 3099 3098 3098 3098 3098 3097 3097 3096 3096 3095 3094 3093 3092 3091 3090 3090 3090 3090 3089
3090 3091 3091 3091 3091 3091 3091 3091 3091 3091 3092 3092 3093 3093 3094 3094 3094 3095 3095 3096 3096 3096 3097 3098 3098 3098 3098 3099 3098 3098 3098 3098 3098 3098 3098 3097 3098 3098 3098 3097 3097 3096 3096 3095 3094 3094 3094 3094 3094 3093 3092 3092 3091 3090 3089 3088 3087 3086 3085 3085 3084 3085 3084
3087 3087 3088 3088 3088 3088 3088 3088 3088 3088 3089 3089 3089 3089 3090 3090 3091 3091 3091 3091 3091 3092 3093 3093 3093 3093 3094 3094 3094 3094 3094 3094 3094 3094 3093 3093 3094 3094 3094 3093 3092 3091 3091 3090 3089 3089 3089 3089 3089 3089 3088 3087 3087 3086 3085 3084 3083 3081 3080 3079 3078 3078 3078
3084 3084 3084 3085 3085 3085 3085 3086 3086 3086 3086 3086 3086 3086 3086 3087 3087 3087 3087 3087 3087 3087 3088 3089 3089 3089 3089 3090 3090 3090 3090 3090 3089 3089 3089 3089 3090 3089 3088 3088 3087 3086 3086 3085 3084 3084 3084 3083 3083 3083 3082 3082 3081 3081 3080 3079 3078 3076 3074 3073 3072 3071 3071
3081 3081 3082 3082 3082 3082 3083 3083 3083 3083 3083 3083 3083 3083 3083 3083 3083 3083 3083 3083 3083 3084 3085 3086 3086 3086 3085 3086 3086 3086 3086 3086 3086 3085 3085 3085 3085 3084 3083 3083 3082 3082 3081 3080 3080 3079 3079 3078 3077 3077 3076 3075 3075 3074 3074 3073 3072 3070 3069 3068 3067 3066 3065
3078 3078 3079 3079 3079 3079 3080 3080 3080 3080 3080 3080 3079 3079 3079 3079 3079 3079 3079 3080 3080 3080 3081 3081 3081 3081 3081 3081 3082 3082 3082 3082 3082 3082 3081 3081 3080 3080 3079 3079 3078 3078 3077 3077 3076 3075 3074 3074 3073 3072 3071 3070 3070 3069 3069 3068 3067 3065 3064 3063 3061 3060 3059
3074 3074 3075 3075 3076 3076 3077 3077 3077 3077 3077 3077 3076 3076 3076 3075 3075 3075 3076 3077 3077 3077 3077 3077 3077 3077 3078 3078 3077 3078 3078 3078 3078 3078 3077 3076 3075 3075 3075 3074 3074 3074 3073 3072 3071 3071 3070 3070 3069 3068 3067 3066 3065 3064 3063 3063 3061 3060 3059 3058 3057 3055 3054
3070 3070 3071 3071 3072 3073 3073 3073 3074 3074 3073 3073 3073 3072 3072 3072 3072 3072 3073 3074 3074 3073 3073 3073 3073 3073 3074 3074 3074 3074 3074 3074 3074 3073 3072 3071 3071 3070 3069 3069 3069 3068 3067 3066 3066 3066 3065 3065 3063 3062 3061 3060 3059 3059 3058 3057 3056 3055 3053 3052 3051 3050 3049
3066 3066 3066 3067 3068 3068 3069 3069 3070 3070 3069 3069 3069 3068 3068 3068 3068 3068 3069 3070 3070 3070 3069 3069 3069 3069 3069 3069 3070 3070 3070 3070 3069 3068 3068 3067 3066 3065 3065 3064 3063 3062 3062 3061 3061 3061 3060 3058 3057 3056 3056 3054 3053 3052 3052 3051 3049 3048 3047 3046 3045 3044 3043
3061 3062 3062 3062 3062 3063 3064 3065 3065 3065 3065 3065 3065 3064 3064 3064 3064 3065 3065 3066 3066 3066 3066 3065 3065 3065 3065 3065 3065 3065 3065 3065 3065 3064 3063 3063 3062 3061 3060 3059 3058 3058 3057 3057 3056 3055 3054 3053 3052 3051 3050 3049 3048 3046 3045 3044 3043 3042 3040 3039 3038 3037 3036
3057 3057 3057 3057 3057 3057 3058 3059 3060 3060 3060 3060 3060 3060 3060 3060 3060 3061 3061 3061 3061 3061 3061 3061 3061 3061 3061 3061 3061 3061 3060 3060 3060 3060 3059 3058 3057 3056 3055 3055 3054 3053 3053 3052 3051 3050 3048 3048 3047 3046 3045 3043 3042 3041 3039 3038 3036 3035 3034 3033 3031 3031 3030
3052 3052 3053 3052 3052 3052 3052 3053 3054 3055 3054 3055 3055 3056 3056 3056 3056 3056 3056 3056 3056 3056 3056 3056 3056 3056 3056 3056 3056 3056 3056 3056 3056 3055 3054 3054 3053 3052 3051 3051 3050 3049 3049 3048 3046 3045 3044 3043 3042 3041 3040 3038 3037 3035 3033 3032 3030 3029 3028 3026 3025 3024 3023
3047 3047 3048 3048 3048 3047 3048 3048 3049 3049 3049 3050 3051 3051 3051 3051 3051 3051 3051 3051 3051 3051 3051 3050 3050 3050 3051 3051 3051 3051 3051 3051 3051 3050 3050 3049 3049 3048 3048 3047 3046 3045 3044 3043 3042 3041 3039 3038 3037 3036 3034 3033 3031 3029 3027 3026 3024 3022 3021 3019 3018 3016 3015